Hauptseite
METAR-TAF:

METAR-TAF

Flughäfen :

Dewar Lakes, Nunavut, Kanada

Breite: 68-39N, Länge: 071-10W, Höhe: 518 m

Beobachtung

Neuester Wetterbericht von vor 22 Minuten, um 12:18 UTC
Wind 19 kt aus Südost
Temperatur -10°C
Luftfeuchtigkeit 92%
Luftdruck 1002 hPa
Geschlossene Wolkendecke in der Höhe von 300 ft

METAR: CWUW 261218Z AUTO 13019KT ////SM OVC003 M10/M11 A2958

Zeit: 08:40 (12:40 UTC)


TAF: fehlend

Wetterbeobachtungen und Prognosen von mehr als 4000 Flughäfen (METAR und TAF Bericht).

Die verfügbaren Stationen werden durch gelbe und rote Markierungen auf der Karte dargestellt.

Führen Sie die Maus auf sie, um den Namen der Station zu sehen.

Darauf klicken, um die Beobachtung von Wetterbeobachtungen und Prognosen zu sehen.

Um die Karte zu ändern : klicken Sie auf den grünen Tasten mit einem schwarzen Kreuz Zum Vergrößern, auf den grünen Button mit einem Gedankenstrich zu verkleinern, oder auf die grünen Pfeile für benachbarte Karten.


METAR-TAF: